Location: Bronnegerveen
(52.9548°N, 6.8388°E)
Time: 01:49:18
(UTC+00:00)

COSMOS 2406 - Pass Details

Date: 15 June 2025
Orbit: 844 x 860 km, 71.0° (Epoch: 07 July)

Event Time Altitude Azimuth Distance (km) Brightness Sun altitude
Rises 01:34:08 0° 328° (NNW) 3,445 6.8 -9.3°
Reaches altitude 10° 01:36:37 10° 330° (NNW) 2,506 6.1 -9.1°
Maximum altitude 01:42:23 75° 56° (NE) 894 3.5 -8.7°
Drops below altitude 10° 01:48:08 10° 143° (SE) 2,494 5.4 -8.3°
Sets 01:50:36 0° 145° (SE) 3,426 6.1 -8.1°
